Location: Houston
(29.7631°N, 95.3631°W)
Time: 12:45:15
(UTC-05:00)

UNISAT 6 - Pass Details

Date: 25 September 2021
Orbit: 606 x 687 km, 97.7° (Epoch: 24 October)

Event Time Altitude Azimuth Distance (km) Brightness Sun altitude
Rises 21:30:15 0° 346° (NNW) 3,055 ? -30.1°
Reaches altitude 10° 21:33:40 10° 320° (NW) 2,129 ? -30.8°
Maximum altitude 21:35:47 13° 292° (WNW) 1,915 ? -31.2°
Drops below altitude 10° 21:37:55 10° 265° (W) 2,112 ? -31.6°
Sets 21:41:17 0° 238° (WSW) 3,007 ? -32.3°
